Location: ??????????
(44.2167°N, 135.5333°E)
Time: 15:09:56
(UTC+00:00)

Cosmos 2263 - Pass Details

Date: 15 June 2025
Orbit: 832 x 862 km, 70.9° (Epoch: 16 July)

Event Time Altitude Azimuth Distance (km) Brightness Sun altitude
Exits shadow 18:33:54 - 198° (SSW) 3,114 6.6 -6.4°
Reaches altitude 10° 18:35:33 10° 197° (SSW) 2,485 6.1 -6.2°
Maximum altitude 18:41:16 77° 112° (ESE) 881 4.4 -5.4°
Drops below altitude 10° 18:46:58 10° 28° (NNE) 2,483 8.0 -4.6°
Sets 18:49:25 0° 27° (NNE) 3,418 8.8 -4.3°
